Wind_Speed
36 37 38 39 39 38 39 38 38 38 39 40 40 40 40 40 40 40 40 39 39 39 40 39 40 38 35 31 31 27 27 27 23 23 20 19 16 16 15 15 13 11 11 11 17 21 22
39 40 41 41 41 42 43 44 44 45 46 46 46 46 46 46 46 45 45 46 45 44 43 41 40 38 37 36 34 36 30 32 30 29 28 26 22 23 17 19 17 16 13 10 17 20 18
43 44 45 46 47 47 48 50 51 51 51 51 50 50 50 50 51 50 47 48 46 44 43 43 41 40 40 41 38 39 37 37 36 34 35 33 28 29 22 22 23 19 15 12 16 20 20
45 47 47 48 51 52 51 53 55 55 54 54 52 52 53 51 50 47 45 47 45 47 49 48 46 45 44 45 44 43 42 40 41 39 37 37 36 34 30 26 28 24 19 13 12 16 19
46 48 50 51 52 52 52 55 55 54 55 57 57 57 56 55 55 51 48 51 50 49 51 51 49 49 49 48 46 43 43 46 46 46 42 40 40 41 36 33 32 29 22 18 17 17 17
50 53 53 55 56 56 57 58 60 60 62 63 64 63 60 58 59 55 53 54 52 51 53 52 50 47 47 47 47 46 44 42 47 49 50 48 45 44 43 40 40 31 25 22 20 20 16
53 53 54 55 56 57 60 62 63 62 62 61 59 62 61 58 61 60 58 57 56 55 54 52 50 47 44 46 44 45 44 42 43 46 47 49 53 52 48 45 42 37 32 28 24 23 19
57 59 60 61 61 63 63 63 63 64 66 66 65 63 65 62 61 60 61 61 58 55 54 52 51 49 44 44 47 45 43 42 40 41 42 44 48 48 49 46 45 42 39 38 30 26 20
62 63 63 64 64 65 67 67 67 68 69 68 67 66 68 68 65 65 66 65 63 59 54 56 53 52 48 45 48 46 44 41 38 35 37 37 37 41 46 52 50 47 48 43 36 28 23
63 65 66 68 69 70 71 71 72 72 73 73 74 72 72 74 72 68 67 64 63 59 56 57 55 52 50 46 51 48 46 42 38 39 33 32 31 33 38 45 50 52 56 43 37 33 29
68 70 71 72 73 75 76 76 76 75 76 76 76 74 73 73 75 73 72 68 65 62 59 58 59 54 53 51 51 52 51 45 44 42 34 39 28 28 30 35 39 50 53 48 38 34 31
74 76 78 80 81 82 82 82 82 81 80 81 82 82 79 74 75 75 75 72 68 67 60 60 60 60 57 54 53 53 52 50 49 43 40 43 32 29 30 27 31 36 43 45 45 38 29
79 80 81 81 81 82 84 85 86 87 87 87 89 88 84 81 79 80 77 77 77 70 66 66 64 64 64 63 60 54 53 51 50 46 45 49 45 41 34 28 28 31 31 34 38 40 46
71 73 74 76 77 76 75 76 79 81 82 82 86 88 89 89 86 86 83 79 78 75 72 71 72 70 69 70 65 62 57 54 49 47 50 45 42 41 39 37 38 31 15 20 32 43 47
74 74 75 77 79 80 82 84 87 89 89 90 92 89 88 87 89 91 91 87 79 81 80 77 78 80 75 75 72 67 65 60 59 54 52 47 42 46 42 43 39 31 21 22 17 24 37
68 70 72 75 78 80 82 84 87 90 90 90 93 91 89 90 90 90 95 94 94 87 81 83 84 83 81 80 77 74 69 67 65 59 53 48 44 43 41 37 34 29 30 18 15 13 20
69 72 76 81 84 88 91 93 94 96 97 96 94 92 90 93 90 92 93 93 95 93 90 87 90 89 86 84 83 83 77 71 69 66 59 54 51 52 48 37 37 34 31 27 22 21 21
77 82 86 90 97 102 104 107 108 109 108 106 104 101 98 97 95 96 96 94 93 93 92 93 91 94 92 89 88 90 84 79 73 70 66 63 58 57 55 52 46 40 36 26 20 23 22
89 92 97 100 102 105 109 110 111 111 110 110 109 106 102 101 101 101 101 100 99 96 96 93 95 96 98 97 95 93 92 85 80 77 72 69 63 62 63 59 51 44 42 36 33 25 20
96 99 99 99 100 102 102 102 103 104 104 104 105 105 106 104 105 105 104 103 102 101 101 98 95 97 100 102 101 101 97 93 90 85 81 77 72 68 66 64 58 49 48 43 37 28 26
100 100 94 92 90 86 80 77 76 76 77 79 83 86 90 92 96 103 107 107 105 104 104 103 98 97 101 105 106 105 104 103 99 95 91 86 83 77 71 69 65 55 52 51 44 38 29
105 94 86 78 73 69 65 63 62 59 58 57 60 65 71 72 74 82 94 108 111 110 106 106 103 99 101 105 109 109 107 105 105 102 98 93 90 86 79 73 70 63 56 56 53 47 41
99 88 79 69 65 62 60 57 54 52 50 50 49 50 54 59 59 62 69 86 100 112 114 111 108 103 100 103 108 112 111 109 106 103 101 98 94 92 87 81 76 69 62 58 58 53 48
96 83 72 67 62 56 52 49 45 44 42 43 43 44 44 46 46 51 60 66 78 94 107 116 114 111 105 103 105 108 112 112 111 108 105 100 97 96 92 87 81 72 69 65 61 58 51
90 78 71 65 60 53 48 44 42 39 38 35 33 34 36 36 38 44 49 55 61 70 86 102 110 117 114 107 101 104 107 110 111 111 109 104 102 96 93 89 77 76 75 73 65 59 55
87 75 68 64 58 51 48 45 42 38 34 31 28 26 25 26 30 34 39 46 52 60 69 80 90 103 114 114 107 101 104 105 111 110 111 109 106 104 97 91 83 79 80 78 67 62 65
81 72 65 60 54 52 48 44 41 38 33 28 25 21 19 17 20 27 33 38 44 50 58 64 72 82 93 105 112 111 105 103 103 107 111 111 111 104 101 97 87 82 81 80 75 59 65
76 67 61 58 53 51 48 44 39 35 32 29 24 20 19 16 13 16 22 29 35 43 48 53 58 66 75 85 95 109 114 107 101 106 108 107 107 101 103 97 91 87 85 85 74 72 71
72 63 57 53 52 52 46 43 37 34 32 30 23 19 17 16 12 9 10 14 21 30 36 40 43 49 56 66 74 86 97 106 114 109 109 105 99 101 99 87 87 87 92 86 79 77 77
Wind_Direction
253 254 255 258 259 260 260 260 261 263 265 266 267 267 267 268 269 270 271 271 269 270 270 270 271 271 271 268 271 266 267 265 263 266 262 261 256 244 235 235 231 240 255 263 257 256 264
257 257 257 258 258 260 261 261 262 263 263 265 266 266 267 268 268 268 270 271 269 270 269 269 269 267 267 266 264 267 260 262 259 263 261 260 259 256 245 244 239 241 253 278 280 267 264
259 259 260 260 260 261 262 263 264 265 266 266 267 267 267 268 269 269 270 270 271 274 273 272 272 272 272 272 270 270 268 265 262 258 258 259 255 257 253 250 248 237 241 255 271 273 271
265 264 263 265 264 264 265 268 268 268 268 268 268 270 270 269 268 269 272 273 274 276 275 274 275 274 271 272 272 268 269 263 263 261 258 253 256 254 251 248 254 246 241 238 256 284 286
268 267 266 267 268 267 270 270 267 266 267 268 270 271 269 269 269 268 269 272 273 273 275 276 275 275 275 274 271 269 267 265 262 262 258 252 250 252 251 248 249 251 246 241 246 258 275
269 270 270 271 270 271 271 270 268 267 267 268 270 270 269 268 269 268 269 271 271 274 275 274 274 275 273 272 273 270 265 263 261 254 252 249 248 249 248 245 245 249 254 251 251 258 267
272 274 274 273 273 272 272 272 271 271 270 269 271 269 268 267 266 267 267 269 272 274 275 273 274 273 269 268 269 265 262 262 257 254 250 248 243 240 243 246 248 246 248 246 250 252 259
276 277 277 276 276 275 273 272 269 269 269 270 268 267 266 264 265 264 265 266 269 270 268 266 265 262 262 260 260 259 257 259 255 254 251 246 247 246 244 245 245 245 241 241 241 248 249
276 277 278 277 277 276 275 273 271 271 271 271 269 268 269 268 266 266 266 266 265 265 261 259 254 255 261 253 254 253 250 250 251 250 250 251 246 242 240 239 240 242 242 237 236 243 251
278 278 277 277 277 276 275 274 273 272 272 271 270 269 269 270 268 266 265 262 261 259 255 252 253 252 254 247 251 248 249 244 244 247 250 251 242 242 239 237 235 237 240 240 237 236 245
281 280 280 279 278 277 276 274 273 274 273 273 271 270 268 267 267 265 264 260 257 254 252 245 253 250 248 247 242 248 246 242 243 243 244 245 243 243 240 236 238 236 240 241 237 238 238
283 283 283 282 281 280 278 275 274 273 271 271 271 270 268 266 264 263 259 258 256 250 248 242 245 248 242 242 244 245 245 240 241 242 237 235 234 238 245 241 242 238 239 235 234 230 229
285 284 283 282 281 279 277 275 274 273 272 270 269 267 266 264 263 261 259 256 253 252 246 242 237 241 246 242 238 242 241 241 239 233 233 233 231 233 242 241 245 238 242 239 228 225 225
287 287 287 285 284 281 278 276 274 273 272 271 270 267 264 261 260 259 257 253 252 248 246 240 238 235 240 246 243 238 238 238 238 235 236 236 235 238 238 235 243 250 242 237 224 221 224
291 289 287 286 284 282 280 279 277 275 272 271 270 267 264 260 257 256 256 256 250 247 243 241 237 236 234 239 241 240 235 233 235 231 232 232 234 237 236 237 243 247 238 236 219 218 224
294 294 293 290 287 284 282 280 278 276 273 270 268 266 263 259 257 254 254 252 252 249 245 242 240 237 235 235 238 238 237 233 233 231 228 228 231 239 239 240 243 243 246 237 232 217 215
299 297 295 292 290 287 283 279 276 273 271 268 265 262 260 257 255 253 253 252 249 247 245 242 238 238 236 234 234 236 235 233 234 233 228 225 226 236 235 232 239 237 237 230 221 226 220
301 298 295 293 291 287 282 277 274 272 270 267 264 261 257 254 253 251 251 250 247 248 243 240 238 236 235 234 232 234 235 234 233 233 232 229 227 233 237 234 235 232 233 226 224 232 230
307 306 303 298 292 287 284 282 280 278 275 272 269 265 260 257 253 251 248 247 247 245 244 240 235 233 232 232 231 232 233 234 233 233 232 232 230 234 237 239 237 234 236 228 225 229 224
315 312 306 300 294 292 289 286 283 281 278 275 272 268 264 260 254 250 249 247 245 244 244 241 238 232 231 230 232 230 232 233 234 235 233 233 233 235 234 239 239 232 233 234 226 220 229
319 315 311 306 303 299 295 291 286 283 278 275 272 269 267 262 257 252 248 246 245 243 242 240 237 234 229 229 230 230 230 231 234 234 234 232 232 233 234 238 238 235 233 232 228 221 222
323 319 316 312 310 307 305 303 298 293 286 280 274 270 267 264 258 251 248 247 243 242 241 241 239 234 230 228 228 229 230 230 231 233 233 232 231 231 234 234 235 234 234 233 231 226 217
328 325 323 322 320 316 312 308 304 299 294 290 283 274 267 264 259 256 247 242 241 241 240 240 240 237 233 230 228 229 230 229 230 232 233 232 231 231 231 233 233 233 233 232 230 226 219
331 331 330 329 325 321 317 314 312 307 300 293 286 280 273 268 259 251 247 242 239 237 237 239 238 237 235 232 229 228 228 230 231 231 232 232 233 233 231 234 232 232 235 232 226 225 224
335 334 336 334 332 331 329 326 322 318 312 304 295 284 276 269 258 251 246 242 239 236 234 234 237 236 235 233 231 229 227 228 230 231 231 231 232 232 232 234 231 229 235 234 227 222 224
339 338 339 338 339 338 337 335 335 332 326 320 312 302 287 271 259 252 249 244 239 235 233 232 233 235 235 233 233 229 229 228 228 229 231 232 231 232 233 233 232 233 236 238 231 220 228
340 342 342 342 344 345 345 345 343 340 338 336 332 326 318 297 267 252 245 241 238 235 234 234 231 231 233 234 234 233 230 230 228 228 230 232 232 231 232 233 231 233 236 237 237 228 231
341 343 344 345 347 350 350 349 352 352 350 349 349 347 341 329 300 268 250 242 239 235 233 232 231 229 230 232 232 233 231 231 229 229 230 231 231 230 230 231 231 234 234 235 233 235 233
343 344 346 346 348 351 354 356 359 1 4 2 359 360 4 358 342 308 267 244 235 234 232 231 231 230 229 231 231 232 232 233 231 230 230 230 231 232 229 226 227 228 230 233 231 232 236
Height
10941 10940 10940 10939 10939 10939 10938 10938 10938 10938 10937 10937 10937 10937 10938 10938 10939 10939 10939 10940 10940 10940 10940 10942 10942 10943 10945 10946 10947 10950 10950 10951 10953 10953 10954 10954 10955 10955 10955 10955 10954 10952 10952 10951 10950 10951 10954
10935 10934 10933 10932 10932 10931 10930 10930 10929 10928 10928 10928 10928 10928 10928 10928 10929 10930 10930 10929 10930 10932 10931 10932 10933 10935 10937 10939 10941 10939 10944 10943 10946 10947 10948 10949 10951 10950 10953 10952 10952 10951 10951 10950 10946 10946 10950
10927 10926 10925 10924 10923 10922 10921 10920 10920 10919 10919 10918 10918 10918 10918 10918 10919 10920 10922 10920 10920 10920 10921 10922 10924 10926 10928 10927 10932 10932 10935 10936 10937 10940 10941 10943 10945 10944 10949 10948 10948 10949 10950 10949 10945 10942 10946
10918 10917 10916 10914 10913 10912 10911 10910 10909 10909 10908 10907 10907 10908 10907 10907 10907 10910 10912 10908 10911 10910 10909 10911 10914 10916 10917 10918 10921 10923 10924 10928 10927 10930 10934 10937 10937 10938 10941 10943 10942 10945 10947 10948 10946 10941 10940
10907 10906 10905 10904 10902 10901 10900 10898 10897 10897 10896 10895 10895 10895 10896 10896 10895 10900 10901 10897 10899 10900 10898 10899 10902 10904 10905 10907 10908 10911 10915 10915 10918 10919 10923 10926 10928 10929 10934 10936 10936 10938 10942 10943 10943 10941 10940
10896 10895 10893 10891 10890 10888 10886 10885 10884 10884 10883 10882 10881 10881 10882 10884 10882 10886 10887 10887 10888 10887 10887 10888 10890 10893 10893 10893 10895 10898 10900 10904 10905 10908 10909 10914 10918 10921 10924 10927 10928 10934 10936 10938 10938 10937 10939
10885 10882 10879 10877 10875 10873 10872 10871 10869 10869 10867 10866 10866 10866 10867 10870 10869 10873 10875 10875 10876 10876 10873 10876 10876 10881 10883 10882 10885 10885 10886 10891 10895 10896 10900 10903 10904 10906 10912 10919 10923 10929 10932 10933 10934 10934 10936
10872 10869 10866 10864 10861 10859 10856 10855 10854 10853 10851 10850 10849 10850 10848 10854 10853 10856 10858 10862 10862 10864 10861 10863 10864 10865 10873 10873 10873 10876 10878 10880 10884 10887 10888 10891 10892 10901 10906 10911 10913 10919 10923 10925 10931 10931 10933
10857 10854 10851 10848 10845 10842 10840 10837 10836 10835 10833 10832 10831 10833 10830 10832 10838 10840 10841 10844 10847 10849 10850 10845 10851 10854 10864 10864 10860 10865 10869 10871 10874 10878 10878 10882 10886 10887 10891 10897 10903 10907 10908 10916 10925 10929 10931
10842 10838 10835 10831 10828 10824 10821 10818 10817 10816 10812 10811 10809 10813 10813 10810 10817 10822 10822 10824 10827 10834 10837 10831 10838 10845 10846 10855 10849 10854 10858 10864 10867 10867 10872 10872 10876 10877 10881 10883 10889 10896 10890 10910 10920 10925 10927
10825 10820 10815 10811 10807 10804 10801 10797 10794 10794 10791 10787 10785 10788 10790 10794 10791 10797 10799 10803 10807 10813 10820 10822 10823 10832 10833 10836 10839 10842 10844 10855 10856 10858 10868 10861 10870 10871 10871 10875 10882 10882 10889 10901 10912 10919 10924
10805 10800 10794 10789 10785 10780 10776 10772 10769 10768 10767 10764 10760 10762 10769 10772 10768 10771 10773 10780 10787 10791 10803 10809 10811 10810 10816 10820 10822 10827 10834 10841 10842 10851 10857 10856 10862 10863 10862 10870 10870 10877 10880 10889 10900 10908 10921
10785 10778 10772 10766 10761 10755 10751 10746 10742 10739 10738 10736 10732 10735 10744 10744 10745 10745 10748 10754 10760 10772 10784 10788 10795 10794 10795 10802 10809 10815 10821 10826 10830 10837 10841 10840 10849 10853 10857 10861 10862 10868 10874 10883 10892 10901 10898
10763 10756 10750 10744 10737 10731 10726 10720 10714 10711 10709 10706 10703 10705 10710 10716 10719 10715 10720 10727 10737 10751 10756 10766 10772 10776 10779 10780 10790 10799 10806 10813 10819 10824 10826 10834 10842 10844 10847 10852 10855 10863 10872 10874 10876 10883 10889
10744 10735 10728 10720 10712 10705 10699 10692 10686 10680 10678 10677 10673 10674 10678 10681 10686 10686 10689 10699 10711 10718 10729 10739 10747 10752 10761 10763 10769 10778 10790 10797 10798 10806 10813 10822 10831 10830 10839 10841 10849 10857 10863 10864 10873 10877 10883
10726 10716 10706 10696 10686 10677 10670 10663 10655 10646 10643 10643 10639 10641 10645 10648 10651 10656 10658 10666 10674 10689 10703 10713 10718 10729 10741 10748 10752 10757 10769 10781 10785 10793 10803 10813 10818 10822 10826 10836 10845 10852 10853 10861 10867 10870 10872
10707 10695 10683 10671 10659 10647 10636 10626 10617 10607 10602 10601 10601 10602 10608 10612 10619 10622 10625 10632 10641 10652 10671 10682 10692 10702 10715 10726 10734 10736 10747 10761 10769 10776 10789 10798 10806 10808 10815 10829 10832 10838 10845 10851 10856 10863 10865
10684 10670 10655 10637 10620 10604 10592 10580 10571 10563 10559 10557 10559 10561 10567 10573 10581 10586 10593 10600 10610 10617 10632 10645 10660 10672 10687 10700 10711 10713 10725 10739 10751 10762 10772 10781 10791 10796 10802 10809 10818 10827 10836 10845 10850 10855 10858
10655 10636 10615 10594 10574 10558 10545 10534 10524 10515 10515 10513 10513 10517 10525 10532 10540 10547 10554 10565 10575 10586 10593 10611 10624 10639 10656 10670 10683 10690 10702 10718 10729 10740 10752 10763 10773 10782 10786 10792 10807 10820 10826 10834 10839 10846 10853
10621 10598 10574 10552 10532 10516 10502 10489 10477 10469 10465 10462 10464 10466 10470 10485 10496 10506 10515 10528 10538 10549 10558 10575 10591 10610 10625 10639 10651 10664 10677 10692 10703 10718 10731 10743 10754 10763 10773 10777 10789 10806 10816 10825 10833 10840 10844
10587 10561 10537 10514 10492 10478 10464 10451 10440 10432 10427 10423 10420 10420 10423 10435 10447 10460 10475 10488 10501 10513 10523 10534 10555 10575 10591 10605 10620 10633 10651 10664 10677 10691 10705 10719 10731 10744 10756 10764 10775 10790 10802 10811 10822 10829 10837
10554 10529 10506 10484 10466 10449 10436 10422 10410 10406 10400 10396 10394 10393 10391 10395 10406 10418 10432 10443 10460 10477 10488 10500 10518 10539 10558 10573 10589 10605 10619 10635 10647 10663 10678 10693 10709 10723 10738 10749 10758 10775 10787 10796 10806 10815 10824
10525 10502 10481 10461 10444 10429 10415 10404 10393 10385 10379 10373 10370 10369 10368 10371 10379 10387 10396 10406 10417 10436 10451 10466 10479 10502 10526 10543 10559 10574 10590 10608 10624 10638 10652 10670 10688 10701 10718 10731 10744 10760 10771 10780 10790 10800 10811
10504 10482 10461 10443 10428 10414 10401 10390 10380 10369 10363 10357 10352 10350 10350 10352 10357 10362 10365 10372 10384 10400 10414 10426 10445 10463 10484 10508 10524 10545 10565 10580 10596 10613 10628 10648 10662 10675 10696 10708 10727 10749 10753 10762 10774 10788 10801
10487 10465 10448 10431 10416 10402 10389 10378 10368 10358 10349 10344 10340 10336 10335 10336 10337 10339 10344 10351 10359 10370 10380 10393 10409 10429 10449 10474 10498 10518 10535 10553 10572 10586 10605 10623 10633 10655 10669 10687 10720 10729 10734 10742 10761 10780 10786
10476 10455 10438 10421 10406 10392 10381 10369 10359 10349 10340 10333 10328 10324 10322 10322 10323 10325 10329 10334 10341 10348 10356 10367 10385 10402 10420 10443 10466 10490 10507 10528 10545 10563 10575 10591 10612 10627 10650 10673 10695 10708 10714 10724 10745 10766 10766
10466 10448 10432 10416 10401 10389 10377 10364 10352 10342 10333 10327 10321 10317 10313 10312 10312 10313 10316 10319 10324 10332 10339 10351 10364 10380 10393 10413 10437 10460 10480 10498 10522 10538 10548 10563 10580 10613 10626 10644 10675 10691 10700 10712 10726 10757 10755
10459 10443 10428 10414 10401 10388 10375 10363 10352 10342 10333 10324 10317 10313 10309 10307 10306 10306 10307 10310 10314 10318 10325 10336 10349 10361 10374 10390 10408 10425 10451 10473 10499 10505 10523 10539 10554 10586 10604 10626 10656 10676 10683 10691 10721 10728 10735
10456 10441 10427 10413 10401 10389 10376 10365 10352 10342 10334 10324 10316 10311 10307 10304 10303 10302 10302 10304 10307 10312 10320 10330 10340 10351 10363 10374 10389 10403 10424 10444 10463 10479 10492 10517 10547 10557 10573 10619 10638 10650 10656 10676 10699 10708 10718